Flag for U.S.A. Weather past 2 weeks in Visalia, California, U.S.A.

Now
61 °F

Clear.


Feels Like: 61 °F
Forecast: 58 / 88 °F
Wind: 7 mph from Northwest

Location: Visalia Municipal

Current Time: May 27, 2015 at 4:04:16 AM

Latest Report: May 27, 2015 at 3:35 AM


Visibility: 10 mi

Pressure: 29.91 "Hg

Humidity: 59%

Dew point: 46 °F

Location of VisaliaLocation

Historic Weather in Visalia — Graph

°F

Visalia temperature yesterday

Maximum temperature yesterday: 86 °F (at 4:15 PM)
Minimum temperature yesterday: 57 °F (at 5:35 AM)
Average temperature yesterday: 72 °F

Past Weeks' High & Low Weather Summary

 TemperatureHumidityPressure
High88 °F (May 25, 3:35 PM)77% (May 14, 9:35 PM)30.08 "Hg (May 14, 9:35 PM)
Low46 °F (May 13, 6:15 AM)19% (May 12, 5:15 PM)29.74 "Hg (May 14, 4:15 PM)
Average65 °F52%29.92 "Hg
* Reported May 12 2:15 AM — May 27 2:55 AM, Visalia, Weather by CustomWeather, © 2015

Note: Actual official high and low records may vary slightly from our data, if they occured in-between our weather recording intervals... More about our weather records

Advertising

Visalia weather history for previous 24 hours

 ConditionsComfort  
Time TempWeatherWind HumidityBarometerVisibility
2:55 AM
Wed, May 27
61 °FClear.9 mph63%29.91 "Hg10 mi
2:35 AM63 °FClear.9 mph59%29.91 "Hg10 mi
2:15 AM63 °FClear.8 mph59%29.91 "Hg10 mi
1:55 AM63 °FClear.7 mph59%29.91 "Hg10 mi
1:35 AM64 °FClear.7 mph56%29.91 "Hg10 mi
1:15 AM64 °FClear.9 mph56%29.91 "Hg10 mi
12:55 AM66 °FPassing clouds.7 mph52%29.90 "Hg10 mi
12:35 AM66 °FPassing clouds.8 mph52%29.90 "Hg10 mi
12:15 AM70 °FPassing clouds.8 mph46%29.90 "Hg10 mi
11:55 PM
Tue, May 26
70 °FClear.9 mph46%29.90 "Hg10 mi
11:35 PM72 °FPassing clouds.9 mph47%29.89 "Hg10 mi
11:15 PM73 °FPassing clouds.9 mph47%29.89 "Hg10 mi
10:55 PM73 °FOvercast.8 mph47%29.89 "Hg10 mi
10:35 PM73 °FPassing clouds.8 mph47%29.89 "Hg10 mi
10:15 PM73 °FPassing clouds.8 mph47%29.90 "Hg10 mi
9:55 PM75 °FClear.10 mph44%29.89 "Hg10 mi
9:35 PM75 °FClear.9 mph47%29.88 "Hg10 mi
8:55 PM79 °FSunny.9 mph42%29.86 "Hg10 mi
8:35 PM79 °FSunny.7 mph42%29.86 "Hg9 mi
8:15 PM81 °FSunny.8 mph39%29.85 "Hg10 mi
7:55 PM81 °FSunny.9 mph39%29.84 "Hg10 mi
7:35 PM82 °FSunny.9 mph37%29.84 "Hg10 mi
7:15 PM84 °FSunny.9 mph35%29.84 "Hg10 mi
6:55 PM84 °FSunny.8 mph33%29.84 "Hg10 mi
6:35 PM84 °FSunny.9 mph33%29.84 "Hg10 mi
6:15 PM86 °FSunny.8 mph31%29.84 "Hg10 mi
5:55 PM86 °FSunny.10 mph31%29.84 "Hg10 mi
5:35 PM84 °FSunny.12 mph35%29.84 "Hg10 mi
5:15 PM86 °FSunny.9 mph31%29.84 "Hg10 mi
4:55 PM86 °FSunny.10 mph31%29.84 "Hg10 mi
4:35 PM86 °FSunny.9 mph31%29.85 "Hg10 mi
4:15 PM86 °FSunny.9 mph33%29.85 "Hg10 mi
3:55 PM84 °FSunny.6 mph35%29.86 "Hg10 mi
3:35 PM84 °FSunny.7 mph35%29.87 "Hg10 mi
3:15 PM84 °FSunny.7 mph35%29.89 "Hg10 mi
2:35 PM82 °FSunny.5 mph37%29.90 "Hg10 mi
2:15 PM82 °FSunny.7 mph37%29.91 "Hg10 mi
1:55 PM81 °FSunny.10 mph39%29.90 "Hg10 mi
1:35 PM82 °FSunny.3 mph37%29.91 "Hg10 mi
1:15 PM81 °FSunny.10 mph42%29.91 "Hg10 mi
12:55 PM79 °FSunny.7 mph45%29.92 "Hg10 mi
12:35 PM79 °FSunny.9 mph45%29.92 "Hg10 mi
12:15 PM77 °FSunny.13 mph44%29.93 "Hg9 mi
11:55 AM75 °FSunny.8 mph47%29.93 "Hg9 mi
11:35 AM73 °FSunny.6 mph50%29.94 "Hg7 mi
11:15 AM73 °FSunny.3 mph50%29.94 "Hg8 mi
10:55 AM72 °FSunny.5 mph53%29.94 "Hg5 mi
10:35 AM70 °FSunny.3 mph57%29.94 "Hg7 mi
10:15 AM70 °FSunny.5 mph53%29.94 "Hg10 mi
9:55 AM68 °FSunny.No wind56%29.94 "Hg10 mi
9:35 AM66 °FSunny.5 mph60%29.95 "Hg10 mi
9:15 AM66 °FSunny.No wind60%29.95 "Hg10 mi
8:55 AM64 °FSunny.No wind60%29.95 "Hg10 mi
8:35 AM64 °FSunny.No wind60%29.95 "Hg10 mi
8:15 AM63 °FSunny.No wind64%29.95 "Hg10 mi
7:55 AM63 °FSunny.3 mph59%29.94 "Hg10 mi
7:35 AM61 °FSunny.6 mph63%29.94 "Hg10 mi
7:15 AM61 °FSunny.7 mph63%29.94 "Hg10 mi
6:55 AM59 °FSunny.6 mph68%29.93 "Hg10 mi
6:35 AM57 °FClear.5 mph72%29.93 "Hg10 mi
6:15 AM57 °FClear.6 mph72%29.92 "Hg10 mi
5:55 AM57 °FClear.3 mph72%29.92 "Hg10 mi
5:35 AM57 °FClear.3 mph72%29.92 "Hg10 mi
5:15 AM59 °FClear.5 mph68%29.91 "Hg10 mi
4:55 AM59 °FClear.3 mph68%29.90 "Hg10 mi
4:35 AM59 °FClear.5 mph68%29.90 "Hg10 mi
4:15 AM61 °FClear.6 mph63%29.89 "Hg10 mi
Weather by CustomWeather, © 2015

See weather overviewHow to use our weather pages